Weather History for Imperial, NE

Change the Weather History Date:

Tuesday, November 20, 2012

  Actual Average Record
Temperature  
Mean Temperature 49 °F 36 °F  
Max Temperature 72 °F 49 °F 75 °F (1897)
Min Temperature 25 °F 22 °F -3 °F (1929)
Degree Days  
Heating Degree Days 16 29  
Month to date heating degree days 445 502  
Cooling Degree Days 0 0  
Month to date cooling degree days 0 0  
Year to date cooling degree days 1382 963  
Moisture  
Dew Point 23 °F    
Average Humidity 48    
Maximum Humidity 81    
Minimum Humidity 15    
Precipitation  
Precipitation 0.00 in 0.02 in 2.72 in (1930)
Sea Level Pressure  
Sea Level Pressure 30.17 in    
Wind  
Wind Speed 7 mph (SW)    
Max Wind Speed 20 mph    
Max Gust Speed 25 mph    
Visibility 10 miles    
Events      
T = Trace of Precipitation, MM = Missing Value Source: NWS Daily Summary

Daily Weather History Graph

Daily Weather History Graph

Search for Another Location

Airport:

Trip Planner

Search our weather history database for the weather conditions in past years. The results will help you decide how hot, cold, wet, or windy it might be!

Date:

Astronomy

Nov. 20, 2012 Rise Set
Actual Time 6:39 AM MST 4:24 PM MST
Civil Twilight 6:09 AM MST 4:54 PM MST
Nautical Twilight 5:36 AM MST 5:27 PM MST
Astronomical Twilight 5:03 AM MST 6:00 PM MST
Moon 12:13 PM MST (11/20) No Moon Set
Length of Visible Light 10h 45m
Length of Day
9h 45m
First Quarter, 52% of the Moon is Illuminated
Nov 20
First Quarter
Nov 28
Full
Dec 6
Last Quarter
Dec 13
New
Dec 19
First Quarter

Hourly Weather History & Observations

Time (MST) Temp. Windchill Dew Point Humidity Pressure Visibility Wind Dir Wind Speed Gust Speed Precip Events Conditions
12:53 AM 34.0 °F 29.8 °F 24.1 °F 67% 30.21 in 10.0 mi NW 4.6 mph - N/A   Clear
1:53 AM 28.9 °F 23.9 °F 21.9 °F 75% 30.22 in 10.0 mi West 4.6 mph - N/A   Clear
2:53 AM 28.9 °F 23.9 °F 21.9 °F 75% 30.22 in 10.0 mi West 4.6 mph - N/A   Clear
3:53 AM 30.9 °F 25.2 °F 23.0 °F 72% 30.22 in 10.0 mi West 5.8 mph - N/A   Clear
4:53 AM 27.0 °F 23.0 °F 21.0 °F 78% 30.25 in 10.0 mi WSW 3.5 mph - N/A   Clear
5:53 AM 27.0 °F - 21.0 °F 78% 30.26 in 10.0 mi Calm Calm - N/A   Clear
6:53 AM 27.0 °F 23.0 °F 21.9 °F 81% 30.28 in 10.0 mi WNW 3.5 mph - N/A   Clear
7:53 AM 34.0 °F 28.0 °F 25.0 °F 70% 30.27 in 10.0 mi West 6.9 mph - N/A   Clear
8:53 AM 44.1 °F 40.1 °F 28.0 °F 53% 30.25 in 10.0 mi West 6.9 mph - N/A   Clear
9:53 AM 52.0 °F - 28.9 °F 41% 30.24 in 10.0 mi SW 9.2 mph - N/A   Clear
10:53 AM 62.1 °F - 28.0 °F 28% 30.19 in 10.0 mi SSW 10.4 mph - N/A   Clear
11:53 AM 68.0 °F - 25.0 °F 20% 30.14 in 10.0 mi SW 16.1 mph 25.3 mph N/A   Clear
12:53 PM 70.0 °F - 24.1 °F 18% 30.11 in 10.0 mi SSW 16.1 mph - N/A   Clear
1:53 PM 71.1 °F - 21.9 °F 16% 30.09 in 10.0 mi SSW 16.1 mph 20.7 mph N/A   Clear
2:53 PM 71.1 °F - 21.9 °F 16% 30.08 in 10.0 mi SSW 12.7 mph - N/A   Clear
3:53 PM 64.9 °F - 23.0 °F 20% 30.09 in 10.0 mi South 6.9 mph - N/A   Clear
4:53 PM 52.0 °F - 23.0 °F 32% 30.13 in 10.0 mi South 5.8 mph - N/A   Clear
5:53 PM 46.0 °F 43.1 °F 21.0 °F 37% 30.14 in 10.0 mi SSE 5.8 mph - N/A   Clear
6:53 PM 45.0 °F 41.8 °F 19.9 °F 37% 30.14 in 9.0 mi SSW 5.8 mph - N/A   Clear
7:53 PM 46.9 °F - 19.9 °F 34% 30.13 in 10.0 mi SSW 9.2 mph - N/A   Clear
8:53 PM 43.0 °F 40.3 °F 19.9 °F 40% 30.11 in 10.0 mi SW 4.6 mph - N/A   Clear
9:53 PM 42.1 °F 39.2 °F 19.9 °F 41% 30.09 in 10.0 mi South 4.6 mph - N/A   Clear
10:53 PM 37.9 °F 34.4 °F 19.0 °F 47% 30.07 in 10.0 mi WSW 4.6 mph - N/A   Clear
11:53 PM 36.0 °F 32.1 °F 19.0 °F 50% 30.06 in 10.0 mi SW 4.6 mph - N/A   Clear